User: anonymous   Login
Location: Whitehorse
(60.7170°N, 135.0500°W)
Time: 10:06:25
(UTC-08:00)
Language:

Cosmos 2219 Rocket - Orbit

View from above orbital plane
View from above orbital plane
View from above satellite
View from above satellite

Ground track
Ground track

The orbit data is extracted from the following two-line orbital elements,

1 22220U 92076B   17059.85295241 -.00000247  00000-0 -10011-3 0  9991
2 22220  70.9993 287.2887 0010561  75.6518 359.8639 14.16410861255438
Epoch (UTC): 28 February 2017 20:28:15
Eccentricity: 0.0010561
inclination: 70.9993°
perigee height: 830 km
apogee height: 845 km
right ascension of ascending node: 287.2887°
argument of perigee: 75.6518°
revolutions per day: 14.16410861
mean anomaly at epoch: 359.8639°
orbit number at epoch: 25543

The dashed part of the orbit path shows where the satellite is in the earth's shadow,  

DLR